Dickinson, ND

4:44 PM MST on December 14, 2017 (GMT -0700)
Dickinson Municipal

Weather History for KDIK - March, 2013

Change the Weather History Date:

Sunday, March 10, 2013

  Actual Average Record
Temperature  
Mean Temperature 22 °F 28 °F  
Max Temperature 34 °F 38 °F 71 °F (2012)
Min Temperature 10 °F 17 °F -33 °F (1948)
Degree Days  
Heating Degree Days 43 37  
Month to date heating degree days 384 391  
Since 1 July heating degree days 6362 6685  
Cooling Degree Days 0 0  
Month to date cooling degree days 0 0  
Year to date cooling degree days 0 0  
Moisture  
Dew Point 15 °F    
Average Humidity 70    
Maximum Humidity 92    
Minimum Humidity 47    
Precipitation  
Precipitation 0.00 in 0.03 in 0.30 in (1899)
Month to date precipitation 0.22 0.18  
Year to date precipitation 0.30 0.81  
Sea Level Pressure  
Sea Level Pressure 30.21 in    
Wind  
Wind Speed 7 mph (West)    
Max Wind Speed 16 mph    
Max Gust Speed 20 mph    
Visibility 10 miles    
Events      
T = Trace of Precipitation, MM = Missing Value Source: NWS Daily Summary

Daily Weather History Graph

Daily Weather History Graph

Search for Another Location

Airport or City:

Trip Planner

Search our weather history database for the weather conditions in past years. The results will help you decide how hot, cold, wet, or windy it might be!

Date:

Astronomy

Mar. 10, 2013 Rise Set
Actual Time 7:13 AM MDT 6:50 PM MDT
Civil Twilight 6:43 AM MDT 7:20 PM MDT
Nautical Twilight 6:07 AM MDT 7:55 PM MDT
Astronomical Twilight 5:32 AM MDT 8:31 PM MDT
Moon 6:16 AM MDT (3/10) 6:00 PM MDT (3/10)
Length of Visible Light 12h 37m
Length of Day
11h 37m
Waning Crescent, 1% of the Moon is Illuminated
Mar 10
Waning Crescent
Mar 11
New
Mar 19
First Quarter
Mar 27
Full
Apr 2
Last Quarter

Hourly Weather History & Observations

Time (MDT) Temp. Windchill Dew Point Humidity Pressure Visibility Wind Dir Wind Speed Gust Speed Precip Events Conditions
12:56 AM 14.0 °F -0.2 °F 10.9 °F 88% 30.26 in 9.0 mi WNW 12.7 mph - N/A   Clear
1:56 AM 14.0 °F 2.9 °F 10.0 °F 84% 30.26 in 10.0 mi NW 8.1 mph - N/A   Clear
3:56 AM 14.0 °F 2.9 °F 10.0 °F 84% 30.26 in 10.0 mi NW 8.1 mph - N/A   Clear
6:56 AM 10.9 °F -0.8 °F 7.0 °F 84% 30.33 in 9.0 mi WNW 8.1 mph - N/A   Clear
7:56 AM 12.9 °F 3.8 °F 10.0 °F 88% 30.34 in 7.0 mi WNW 5.8 mph - N/A   Clear
8:56 AM 16.0 °F 5.3 °F 12.0 °F 84% 30.36 in 8.0 mi NW 8.1 mph - N/A   Clear
9:56 AM 19.0 °F 13.9 °F 14.0 °F 81% 30.35 in 10.0 mi WNW 3.5 mph - N/A   Clear
10:56 AM 23.0 °F 17.0 °F 12.9 °F 65% 30.32 in 10.0 mi Variable 4.6 mph - N/A   Clear
11:56 AM 25.0 °F 18.1 °F 16.0 °F 69% 30.29 in 10.0 mi NNW 5.8 mph - N/A   Clear
12:56 PM 28.0 °F 20.8 °F 17.1 °F 63% 30.27 in 10.0 mi West 6.9 mph - N/A   Clear
1:56 PM 30.9 °F 23.5 °F 17.1 °F 57% 30.23 in 10.0 mi WNW 8.1 mph - N/A   Clear
2:56 PM 32.0 °F 25.6 °F 18.0 °F 56% 30.20 in 10.0 mi WNW 6.9 mph - N/A   Clear
3:56 PM 33.1 °F 26.1 °F 16.0 °F 50% 30.19 in 10.0 mi NW 8.1 mph - N/A   Clear
4:56 PM 33.1 °F - 17.1 °F 52% 30.17 in 10.0 mi Calm Calm - N/A   Clear
5:56 PM 33.1 °F - 18.0 °F 54% 30.15 in 10.0 mi Calm Calm - N/A   Clear
6:56 PM 28.0 °F 20.8 °F 19.0 °F 69% 30.13 in 10.0 mi SE 6.9 mph - N/A   Clear
7:56 PM 25.0 °F 20.7 °F 18.0 °F 75% 30.13 in 10.0 mi SE 3.5 mph - N/A   Clear
8:56 PM 21.9 °F 13.4 °F 17.1 °F 82% 30.12 in 10.0 mi South 6.9 mph - N/A   Clear
9:56 PM 24.1 °F 15.2 °F 19.0 °F 81% 30.08 in 10.0 mi South 8.1 mph - N/A   Clear
10:56 PM 25.0 °F 14.8 °F 19.0 °F 78% 30.04 in 10.0 mi South 10.4 mph - N/A   Clear
12:56 AM 26.1 °F 14.5 °F 18.0 °F 71% 29.94 in 10.0 mi South 13.8 mph - N/A   Partly Cloudy